Camarillo, CA

1:33 AM PDT on March 29, 2017 (GMT -0700)
Camarillo

Weather History for KCMA - November, 2012

Change the Weather History Date:

Friday, November 9, 2012

  Actual Average Record
Temperature  
Mean Temperature 53 °F 60 °F  
Max Temperature 64 °F 71 °F 95 °F (2016)
Min Temperature 42 °F 49 °F 40 °F (1961)
Degree Days  
Heating Degree Days 12 6  
Month to date heating degree days 32 47  
Since 1 July heating degree days 107 170  
Cooling Degree Days 0 1  
Month to date cooling degree days 21 9  
Year to date cooling degree days 387 325  
Growing Degree Days 6 (Base 50)    
Moisture  
Dew Point 41 °F    
Average Humidity 62    
Maximum Humidity 86    
Minimum Humidity 37    
Precipitation  
Precipitation 0.00 in 0.04 in 1.18 in (1994)
Month to date precipitation 0.03 0.43  
Year to date precipitation 5.75 12.28  
Since 1 July precipitation 0.07  
Sea Level Pressure  
Sea Level Pressure 29.92 in    
Wind  
Wind Speed 10 mph (West)    
Max Wind Speed 30 mph    
Max Gust Speed 35 mph    
Visibility 10 miles    
Events      
T = Trace of Precipitation, MM = Missing Value Source: NWS Daily Summary

Daily Weather History Graph

Daily Weather History Graph

Search for Another Location

Airport or City:

Trip Planner

Search our weather history database for the weather conditions in past years. The results will help you decide how hot, cold, wet, or windy it might be!

Date:

Astronomy

Nov. 09, 2012 Rise Set
Actual Time 6:24 AM PST 4:55 PM PST
Civil Twilight 5:57 AM PST 5:22 PM PST
Nautical Twilight 5:27 AM PST 5:52 PM PST
Astronomical Twilight 4:58 AM PST 6:21 PM PST
Moon 1:40 AM PST (11/9) 2:01 PM PST (11/9)
Length of Visible Light 11h 24m
Length of Day
10h 31m
Waning Crescent, 22% of the Moon is Illuminated
Nov 9
Waning Crescent
Nov 13
New
Nov 20
First Quarter
Nov 28
Full
Dec 6
Last Quarter

Hourly Weather History & Observations

Time (PST) Temp. Dew Point Humidity Pressure Visibility Wind Dir Wind Speed Gust Speed Precip Events Conditions
12:55 AM 54.0 °F 44.1 °F 69% 29.91 in 10.0 mi Calm Calm - N/A   Clear
1:55 AM 54.0 °F 43.0 °F 66% 29.91 in 10.0 mi Calm Calm - N/A   Clear
2:55 AM 52.0 °F 45.0 °F 77% 29.90 in 10.0 mi Calm Calm - N/A   Clear
3:55 AM 57.0 °F 46.0 °F 67% 29.89 in 10.0 mi WSW 11.5 mph 17.3 mph N/A   Clear
4:55 AM 55.0 °F 43.0 °F 64% 29.89 in 10.0 mi West 13.8 mph - N/A   Clear
5:55 AM 51.1 °F 42.1 °F 71% 29.91 in 10.0 mi Calm Calm - N/A   Clear
6:55 AM 48.0 °F 44.1 °F 86% 29.92 in 10.0 mi East 3.5 mph - N/A   Clear
7:55 AM 54.0 °F 45.0 °F 72% 29.94 in 10.0 mi ENE 3.5 mph - N/A   Clear
8:55 AM 57.9 °F 41.0 °F 53% 29.94 in 10.0 mi Calm Calm - N/A   Clear
9:55 AM 62.1 °F 39.9 °F 44% 29.95 in 10.0 mi WNW 8.1 mph - N/A   Clear
10:55 AM 64.0 °F 37.9 °F 38% 29.94 in 10.0 mi West 17.3 mph - N/A   Clear
11:55 AM 64.0 °F 39.9 °F 41% 29.93 in 10.0 mi West 18.4 mph 24.2 mph N/A   Clear
12:55 PM 63.0 °F 39.9 °F 43% 29.90 in 10.0 mi West 23.0 mph 29.9 mph N/A   Clear
1:55 PM 63.0 °F 41.0 °F 45% 29.89 in 10.0 mi West 21.9 mph 31.1 mph N/A   Clear
2:55 PM 62.1 °F 42.1 °F 48% 29.88 in 10.0 mi West 21.9 mph 33.4 mph N/A   Clear
3:55 PM 60.1 °F 43.0 °F 53% 29.88 in 10.0 mi West 26.5 mph 31.1 mph N/A   Clear
4:55 PM 59.0 °F 39.0 °F 48% 29.89 in 10.0 mi West 21.9 mph 31.1 mph N/A   Clear
5:55 PM 57.9 °F 41.0 °F 53% 29.90 in 10.0 mi West 16.1 mph - N/A   Clear
6:55 PM 55.9 °F 39.0 °F 53% 29.91 in 10.0 mi West 12.7 mph - N/A   Clear
7:55 PM 55.0 °F 39.9 °F 57% 29.94 in 10.0 mi WNW 9.2 mph - N/A   Clear
8:55 PM 51.1 °F 37.9 °F 61% 29.96 in 10.0 mi Calm Calm - N/A   Clear
9:55 PM 48.9 °F 39.0 °F 69% 29.98 in 10.0 mi Calm Calm - N/A   Clear
10:55 PM 43.0 °F 37.0 °F 80% 29.98 in 10.0 mi Calm Calm - N/A   Clear